NORTHEAST SUFFOLK  -  Winter Weather Advisory Winter Weather Advisory     Winter Weather Advisory Winter Weather Advisory        NORTHERN NASSAU  -  Winter Weather Advisory Winter Weather Advisory        NORTHWEST SUFFOLK  -  Winter Weather Advisory Winter Weather Advisory     Winter Weather Advisory Winter Weather Advisory        SOUTHEAST SUFFOLK  -  Winter Weather Advisory Winter Weather Advisory     Winter Weather Advisory Winter Weather Advisory        SOUTHERN NASSAU  -  Winter Weather Advisory Winter Weather Advisory        SOUTHWEST SUFFOLK  -  Winter Weather Advisory Winter Weather Advisory     Winter Weather Advisory Winter Weather Advisory      

Active alerts

Northern Nassau
  Details for Northern Nassau Winter Weather Advisory
Southern Nassau
  Details for Southern Nassau Winter Weather Advisory
Northwest Suffolk
  Details for Northwest Suffolk Winter Weather Advisory  +1 additional alert
Southwest Suffolk
  Details for Southwest Suffolk Winter Weather Advisory  +1 additional alert
Northeast Suffolk
  Details for Northeast Suffolk Winter Weather Advisory  +1 additional alert
Southeast Suffolk
  Details for Southeast Suffolk Winter Weather Advisory  +1 additional alert


WXM80 ListenWXM80 Stop

You find our weather info also at:

UK Metoffice

WeatherCloud

Weather Underground

Northeastern Weather Network

AWEKAS

Citizen Weather Observer Program (CWOP)

HAMweather, WeatherForYou, PWS Weather


Weather Underground History page Text

Daily Summary for March 1, 2016 Units:  English    Metric   Both
« Previous Day
Next Day »
Daily Weekly Monthly Yearly Custom
  High: Low: Average:
Temperature: 52.3 °F 39.1 °F 44.2 °F
Dew Point: 50.0 °F 19.0 °F 31.8 °F
Humidity: 94 % 37 % 63 %
Wind Speed: 12.9 mph 0.3 mph 5 mph
Wind Gust: 21.9 mph - -
Wind:- - SSE
Pressure: 30.19 in 29.63 in -
Precipitation: 0.08 in    
Historical Graphs
 
 
Tabular Data for March 1, 2016
Time Temperature Dew Point Pressure Wind Wind Speed Wind Gust Humidity Rainfall Rate (Hourly)
00:03 47.4 °F 32.5 °F 29.89 in South 6.6 mph 16.1 mph 56 % 0.00 in
00:08 47.6 °F 32.7 °F 29.89 in SW 7.1 mph 12.7 mph 56 % 0.00 in
00:13 47.6 °F 32.7 °F 29.90 in SSW 5.8 mph 10.4 mph 56 % 0.00 in
00:19 47.6 °F 32.7 °F 29.90 in SW 7.4 mph 18.4 mph 56 % 0.00 in
00:24 47.7 °F 32.3 °F 29.90 in SSW 6.1 mph 10.4 mph 55 % 0.00 in
00:29 47.8 °F 32.4 °F 29.91 in WSW 7.1 mph 15.0 mph 55 % 0.00 in
00:34 47.9 °F 32.5 °F 29.91 in SSW 5.5 mph 11.5 mph 55 % 0.00 in
00:39 48.0 °F 32.6 °F 29.91 in SW 8.7 mph 15.0 mph 55 % 0.00 in
00:44 48.1 °F 32.7 °F 29.91 in WSW 6.7 mph 14.0 mph 55 % 0.00 in
00:49 48.3 °F 32.9 °F 29.92 in SW 12.6 mph 21.9 mph 55 % 0.00 in
00:54 48.6 °F 32.7 °F 29.92 in WSW 12.9 mph 21.9 mph 54 % 0.00 in
00:59 48.8 °F 32.9 °F 29.91 in WSW 6.2 mph 12.7 mph 54 % 0.00 in
01:04 48.9 °F 33.0 °F 29.92 in WSW 12.1 mph 20.0 mph 54 % 0.00 in
01:10 49.0 °F 33.1 °F 29.92 in SW 7.2 mph 11.5 mph 54 % 0.00 in
01:15 48.9 °F 33.0 °F 29.92 in SW 10.3 mph 15.0 mph 54 % 0.00 in
01:20 48.9 °F 33.0 °F 29.92 in SSW 6.8 mph 12.7 mph 54 % 0.00 in
01:25 48.8 °F 33.3 °F 29.93 in WSW 5.2 mph 13.0 mph 55 % 0.00 in
01:30 48.7 °F 33.2 °F 29.93 in WNW 7.7 mph 17.0 mph 55 % 0.00 in
01:35 48.6 °F 33.1 °F 29.93 in SW 4.3 mph 9.2 mph 55 % 0.00 in
01:40 48.5 °F 33.1 °F 29.93 in WSW 7.8 mph 12.7 mph 55 % 0.00 in
01:45 48.3 °F 33.3 °F 29.93 in WSW 8.6 mph 16.1 mph 56 % 0.00 in
01:50 48.2 °F 33.2 °F 29.94 in WSW 10.8 mph 15.0 mph 56 % 0.00 in
01:55 48.1 °F 33.1 °F 29.93 in SW 6.8 mph 13.0 mph 56 % 0.00 in
02:00 48.1 °F 33.1 °F 29.94 in WSW 8.1 mph 12.0 mph 56 % 0.00 in
02:05 48.0 °F 33.0 °F 29.94 in SW 6.9 mph 11.5 mph 56 % 0.00 in
02:11 47.9 °F 32.9 °F 29.94 in SW 6.7 mph 11.5 mph 56 % 0.00 in
02:16 47.8 °F 32.9 °F 29.94 in SW 6.2 mph 11.5 mph 56 % 0.00 in
02:21 47.7 °F 33.2 °F 29.94 in SSW 7.2 mph 13.8 mph 57 % 0.00 in
02:26 47.7 °F 33.2 °F 29.94 in SW 5.2 mph 8.0 mph 57 % 0.00 in
02:31 47.6 °F 33.1 °F 29.94 in WNW 3.9 mph 9.2 mph 57 % 0.00 in
02:36 47.5 °F 33.0 °F 29.94 in WSW 4.1 mph 11.5 mph 57 % 0.00 in
02:41 47.4 °F 32.9 °F 29.94 in WSW 8.7 mph 11.5 mph 57 % 0.00 in
02:46 47.3 °F 33.3 °F 29.95 in SSW 9.2 mph 16.1 mph 58 % 0.00 in
02:51 47.2 °F 33.2 °F 29.95 in SW 6.1 mph 12.7 mph 58 % 0.00 in
02:56 47.1 °F 33.5 °F 29.95 in SSW 6.7 mph 10.0 mph 59 % 0.00 in
03:02 47.0 °F 33.4 °F 29.96 in WSW 4.7 mph 11.5 mph 59 % 0.00 in
03:07 47.0 °F 33.4 °F 29.96 in South 4.9 mph 9.2 mph 59 % 0.00 in
03:12 46.9 °F 33.7 °F 29.97 in West 7.5 mph 16.1 mph 60 % 0.00 in
03:17 46.7 °F 33.5 °F 29.97 in West 6.9 mph 13.8 mph 60 % 0.00 in
03:22 46.6 °F 33.4 °F 29.98 in West 7.1 mph 11.5 mph 60 % 0.00 in
03:27 46.5 °F 33.8 °F 29.98 in WSW 6.5 mph 13.0 mph 61 % 0.00 in
03:32 46.4 °F 33.7 °F 29.98 in WSW 8.0 mph 15.0 mph 61 % 0.00 in
03:37 46.4 °F 33.7 °F 29.99 in WNW 4.5 mph 8.1 mph 61 % 0.00 in
03:42 46.2 °F 34.3 °F 30.00 in NNW 3.7 mph 8.1 mph 63 % 0.00 in
03:47 45.8 °F 34.7 °F 30.00 in NNW 4.6 mph 8.1 mph 65 % 0.00 in
03:53 45.3 °F 34.6 °F 30.01 in WNW 5.5 mph 9.2 mph 66 % 0.00 in
03:58 44.7 °F 34.0 °F 30.01 in WNW 6.5 mph 11.5 mph 66 % 0.00 in
04:03 44.4 °F 33.0 °F 30.02 in WNW 4.9 mph 13.8 mph 64 % 0.00 in
04:08 44.2 °F 32.8 °F 30.02 in WSW 6.1 mph 11.5 mph 64 % 0.00 in
04:13 43.9 °F 32.9 °F 30.02 in WNW 3.8 mph 8.1 mph 65 % 0.00 in
04:18 43.7 °F 31.9 °F 30.03 in West 8.3 mph 16.1 mph 63 % 0.00 in
04:23 43.6 °F 32.2 °F 30.03 in West 4.4 mph 9.0 mph 64 % 0.00 in
04:28 43.4 °F 32.4 °F 30.03 in WNW 4.0 mph 11.5 mph 65 % 0.00 in
04:33 43.2 °F 32.2 °F 30.04 in West 5.9 mph 9.2 mph 65 % 0.00 in
04:38 43.1 °F 32.1 °F 30.04 in West 4.5 mph 8.1 mph 65 % 0.00 in
04:44 42.9 °F 31.9 °F 30.04 in WNW 5.5 mph 11.5 mph 65 % 0.00 in
04:49 42.8 °F 31.5 °F 30.05 in NW 7.2 mph 11.5 mph 64 % 0.00 in
04:54 42.6 °F 31.3 °F 30.05 in SW 3.9 mph 5.0 mph 64 % 0.00 in
04:59 42.5 °F 31.2 °F 30.05 in NW 3.6 mph 4.6 mph 64 % 0.00 in
05:04 42.3 °F 31.0 °F 30.04 in WNW 4.9 mph 6.9 mph 64 % 0.00 in
05:09 42.2 °F 30.9 °F 30.05 in WNW 8.1 mph 12.7 mph 64 % 0.00 in
05:14 42.1 °F 30.4 °F 30.05 in West 6.1 mph 10.4 mph 63 % 0.00 in
05:19 42.0 °F 30.3 °F 30.05 in West 4.8 mph 10.4 mph 63 % 0.00 in
05:24 41.8 °F 29.7 °F 30.05 in NW 3.1 mph 9.2 mph 62 % 0.00 in
05:30 41.6 °F 29.5 °F 30.06 in NNW 3.1 mph 8.1 mph 62 % 0.00 in
05:35 41.5 °F 29.8 °F 30.06 in WNW 5.1 mph 11.5 mph 63 % 0.00 in
05:40 41.3 °F 29.6 °F 30.07 in NNW 2.8 mph 5.0 mph 63 % 0.00 in
05:45 41.1 °F 30.2 °F 30.07 in NW 5.2 mph 9.2 mph 65 % 0.00 in
05:50 40.9 °F 30.4 °F 30.07 in NW 3.6 mph 11.5 mph 66 % 0.00 in
05:55 40.6 °F 30.5 °F 30.08 in SW 3.4 mph 8.0 mph 67 % 0.00 in
06:00 40.4 °F 29.9 °F 30.08 in West 3.6 mph 10.4 mph 66 % 0.00 in
06:05 40.2 °F 29.0 °F 30.08 in West 4.0 mph 8.1 mph 64 % 0.00 in
06:10 40.1 °F 28.9 °F 30.08 in NW 2.6 mph 5.0 mph 64 % 0.00 in
06:15 40.0 °F 28.4 °F 30.09 in NW 4.4 mph 8.1 mph 63 % 0.00 in
06:21 39.8 °F 27.8 °F 30.09 in NW 5.4 mph 13.8 mph 62 % 0.00 in
06:26 39.7 °F 27.7 °F 30.09 in WSW 5.8 mph 11.5 mph 62 % 0.00 in
06:31 39.6 °F 27.6 °F 30.10 in West 4.2 mph 9.2 mph 62 % 0.00 in
06:36 39.6 °F 28.0 °F 30.10 in WNW 2.1 mph 9.2 mph 63 % 0.00 in
06:41 39.5 °F 27.9 °F 30.10 in West 2.8 mph 8.1 mph 63 % 0.00 in
06:46 39.4 °F 27.8 °F 30.11 in WSW 2.3 mph 6.9 mph 63 % 0.00 in
06:51 39.3 °F 27.4 °F 30.11 in NW 4.0 mph 9.2 mph 62 % 0.00 in
06:56 39.2 °F 27.3 °F 30.12 in NW 5.4 mph 6.9 mph 62 % 0.00 in
07:01 39.1 °F 26.4 °F 30.12 in West 5.1 mph 9.2 mph 60 % 0.00 in
07:06 39.2 °F 26.1 °F 30.12 in WSW 2.3 mph 10.4 mph 59 % 0.00 in
07:12 39.3 °F 26.2 °F 30.13 in North 3.4 mph 3.5 mph 59 % 0.00 in
07:17 39.5 °F 26.3 °F 30.13 in NW 2.8 mph 8.1 mph 59 % 0.00 in
07:22 39.7 °F 25.3 °F 30.14 in West 4.2 mph 9.2 mph 56 % 0.00 in
07:27 39.8 °F 24.5 °F 30.14 in SW 4.1 mph 11.5 mph 54 % 0.00 in
07:32 39.9 °F 24.6 °F 30.14 in WNW 3.5 mph 9.0 mph 54 % 0.00 in
07:37 40.0 °F 24.7 °F 30.14 in WSW 4.2 mph 8.1 mph 54 % 0.00 in
07:42 40.0 °F 23.8 °F 30.14 in WNW 4.8 mph 9.2 mph 52 % 0.00 in
07:47 40.0 °F 23.8 °F 30.14 in West 6.7 mph 10.4 mph 52 % 0.00 in
07:52 40.1 °F 23.9 °F 30.14 in WNW 4.6 mph 6.9 mph 52 % 0.00 in
07:57 40.2 °F 24.4 °F 30.14 in WNW 1.3 mph 4.6 mph 53 % 0.00 in
08:03 40.4 °F 24.6 °F 30.15 in WNW 5.0 mph 8.1 mph 53 % 0.00 in
08:08 40.6 °F 23.9 °F 30.15 in NW 5.3 mph 8.1 mph 51 % 0.00 in
08:13 40.7 °F 24.0 °F 30.16 in West 5.9 mph 9.2 mph 51 % 0.00 in
08:18 40.9 °F 24.6 °F 30.16 in WNW 1.0 mph 3.0 mph 52 % 0.00 in
08:23 41.2 °F 24.4 °F 30.17 in WNW 2.1 mph 3.5 mph 51 % 0.00 in
08:33 41.6 °F 24.8 °F 30.17 in WNW 4.4 mph 6.9 mph 51 % 0.00 in
08:38 41.8 °F 26.8 °F 30.17 in NNE 5.0 mph 8.1 mph 55 % 0.00 in
08:43 41.5 °F 27.0 °F 30.17 in NNE 3.7 mph 9.2 mph 56 % 0.00 in
08:48 41.6 °F 26.6 °F 30.17 in North 4.1 mph 6.9 mph 55 % 0.00 in
08:54 41.5 °F 26.1 °F 30.17 in NNW 3.4 mph 6.9 mph 54 % 0.00 in
08:59 41.2 °F 26.2 °F 30.17 in NNW 1.9 mph 5.8 mph 55 % 0.00 in
09:04 41.3 °F 27.6 °F 30.17 in NNW 0.3 mph 4.6 mph 58 % 0.00 in
09:09 41.5 °F 27.0 °F 30.17 in NNE 2.1 mph 3.5 mph 56 % 0.00 in
09:14 41.8 °F 26.8 °F 30.17 in NE 2.6 mph 3.5 mph 55 % 0.00 in
09:19 41.9 °F 26.9 °F 30.16 in ENE 3.1 mph 4.0 mph 55 % 0.00 in
09:29 42.5 °F 27.0 °F 30.16 in North 3.7 mph 4.6 mph 54 % 0.00 in
09:34 43.0 °F 27.0 °F 30.18 in NNE 3.1 mph 4.6 mph 53 % 0.00 in
09:39 43.1 °F 26.7 °F 30.18 in NNW 4.4 mph 5.8 mph 52 % 0.00 in
09:45 42.9 °F 26.0 °F 30.18 in NNE 7.0 mph 9.0 mph 51 % 0.00 in
09:50 42.7 °F 26.7 °F 30.18 in North 7.6 mph 10.4 mph 53 % 0.00 in
09:55 42.4 °F 26.9 °F 30.19 in NNE 5.5 mph 8.1 mph 54 % 0.00 in
10:00 42.0 °F 25.6 °F 30.18 in NNE 5.3 mph 8.1 mph 52 % 0.00 in
10:05 41.6 °F 26.2 °F 30.18 in NNE 5.2 mph 8.1 mph 54 % 0.00 in
10:10 41.4 °F 26.0 °F 30.18 in NNE 5.0 mph 6.9 mph 54 % 0.00 in
10:15 41.4 °F 26.9 °F 30.18 in NE 4.6 mph 6.9 mph 56 % 0.00 in
10:20 41.5 °F 27.4 °F 30.17 in NNE 3.4 mph 6.0 mph 57 % 0.00 in
10:25 41.6 °F 27.1 °F 30.17 in NE 3.0 mph 5.0 mph 56 % 0.00 in
10:30 41.6 °F 26.2 °F 30.17 in NE 2.9 mph 4.6 mph 54 % 0.00 in
10:36 41.5 °F 26.1 °F 30.17 in ENE 2.7 mph 5.8 mph 54 % 0.00 in
10:41 41.5 °F 26.5 °F 30.17 in ENE 3.2 mph 5.0 mph 55 % 0.00 in
10:46 41.5 °F 26.5 °F 30.17 in ENE 4.6 mph 8.0 mph 55 % 0.00 in
10:51 42.0 °F 27.0 °F 30.16 in ENE 3.2 mph 4.6 mph 55 % 0.00 in
10:56 42.7 °F 28.1 °F 30.16 in NNE 3.0 mph 3.5 mph 56 % 0.00 in
11:01 43.9 °F 27.9 °F 30.16 in NNE 3.4 mph 4.0 mph 53 % 0.00 in
11:06 44.3 °F 27.8 °F 30.16 in ENE 5.0 mph 6.9 mph 52 % 0.00 in
11:11 43.9 °F 27.4 °F 30.16 in ENE 4.9 mph 6.9 mph 52 % 0.00 in
11:16 43.8 °F 28.2 °F 30.16 in ENE 3.3 mph 4.6 mph 54 % 0.00 in
11:21 43.5 °F 27.5 °F 30.16 in NNE 3.5 mph 6.9 mph 53 % 0.00 in
11:27 43.6 °F 28.0 °F 30.16 in ENE 4.2 mph 7.0 mph 54 % 0.00 in
11:32 43.2 °F 26.7 °F 30.15 in ENE 6.3 mph 8.1 mph 52 % 0.00 in
11:37 42.5 °F 26.6 °F 30.14 in ENE 5.0 mph 8.1 mph 53 % 0.00 in
11:42 42.2 °F 26.3 °F 30.15 in East 5.5 mph 9.2 mph 53 % 0.00 in
11:47 42.1 °F 27.9 °F 30.15 in ENE 5.9 mph 8.1 mph 57 % 0.00 in
11:52 41.8 °F 25.9 °F 30.14 in ENE 6.5 mph 10.4 mph 53 % 0.00 in
11:57 41.5 °F 26.5 °F 30.14 in ENE 4.7 mph 7.0 mph 55 % 0.00 in
12:02 41.8 °F 26.8 °F 30.14 in NE 6.0 mph 9.2 mph 55 % 0.00 in
12:07 41.7 °F 27.1 °F 30.14 in East 5.7 mph 8.1 mph 56 % 0.00 in
12:12 41.8 °F 25.9 °F 30.14 in East 6.4 mph 8.1 mph 53 % 0.00 in
12:18 41.9 °F 26.0 °F 30.13 in East 5.9 mph 8.1 mph 53 % 0.00 in
12:23 41.8 °F 24.5 °F 30.13 in ENE 6.4 mph 10.4 mph 50 % 0.00 in
12:28 41.7 °F 24.9 °F 30.13 in East 5.2 mph 7.0 mph 51 % 0.00 in
12:38 41.7 °F 25.4 °F 30.12 in ENE 4.1 mph 5.8 mph 52 % 0.00 in
12:43 41.9 °F 24.1 °F 30.12 in East 4.4 mph 8.1 mph 49 % 0.00 in
12:48 42.0 °F 23.2 °F 30.11 in ENE 3.0 mph 6.9 mph 47 % 0.00 in
12:53 42.1 °F 24.8 °F 30.11 in East 5.9 mph 8.1 mph 50 % 0.00 in
12:58 42.0 °F 24.2 °F 30.10 in East 4.3 mph 9.2 mph 49 % 0.00 in
13:03 42.0 °F 23.2 °F 30.10 in East 4.1 mph 6.9 mph 47 % 0.00 in
13:09 42.1 °F 23.3 °F 30.10 in ENE 5.3 mph 6.9 mph 47 % 0.00 in
13:14 42.4 °F 24.1 °F 30.09 in ENE 5.5 mph 7.0 mph 48 % 0.00 in
13:19 42.7 °F 22.8 °F 30.09 in ENE 5.0 mph 8.0 mph 45 % 0.00 in
13:24 43.0 °F 22.5 °F 30.09 in ESE 3.1 mph 4.6 mph 44 % 0.00 in
13:29 43.4 °F 21.8 °F 30.08 in East 2.7 mph 5.8 mph 42 % 0.00 in
13:34 43.8 °F 23.3 °F 30.09 in ENE 2.0 mph 3.5 mph 44 % 0.00 in
13:39 43.8 °F 22.7 °F 30.08 in East 4.8 mph 9.2 mph 43 % 0.00 in
13:44 44.1 °F 24.6 °F 30.08 in NE 4.1 mph 5.8 mph 46 % 0.00 in
13:49 44.1 °F 21.9 °F 30.08 in East 4.4 mph 7.0 mph 41 % 0.00 in
13:54 43.9 °F 22.3 °F 30.08 in ENE 5.5 mph 8.0 mph 42 % 0.00 in
14:00 43.7 °F 20.3 °F 30.07 in East 5.1 mph 6.9 mph 39 % 0.00 in
14:05 43.6 °F 19.0 °F 30.07 in ENE 3.7 mph 8.1 mph 37 % 0.00 in
14:10 43.7 °F 20.9 °F 30.08 in North 3.0 mph 4.6 mph 40 % 0.00 in
14:20 44.1 °F 21.3 °F 30.08 in NE 2.2 mph 3.5 mph 40 % 0.00 in
14:25 44.4 °F 22.1 °F 30.08 in NNE 3.2 mph 4.6 mph 41 % 0.00 in
14:30 44.2 °F 23.1 °F 30.07 in East 6.2 mph 8.1 mph 43 % 0.00 in
14:35 43.7 °F 23.7 °F 30.07 in ENE 5.4 mph 10.4 mph 45 % 0.00 in
14:40 43.3 °F 21.7 °F 30.07 in ENE 5.2 mph 6.9 mph 42 % 0.00 in
14:45 42.9 °F 23.0 °F 30.07 in ENE 5.7 mph 8.1 mph 45 % 0.00 in
14:51 42.8 °F 21.8 °F 30.07 in NE 5.6 mph 8.1 mph 43 % 0.00 in
14:56 42.8 °F 23.9 °F 30.07 in East 6.5 mph 8.1 mph 47 % 0.00 in
15:01 42.9 °F 26.0 °F 30.07 in ENE 6.9 mph 9.2 mph 51 % 0.00 in
15:06 42.8 °F 26.4 °F 30.06 in ENE 4.7 mph 9.2 mph 52 % 0.00 in
15:11 42.5 °F 23.7 °F 30.06 in ENE 5.3 mph 8.1 mph 47 % 0.00 in
15:16 42.2 °F 24.9 °F 30.06 in ENE 4.2 mph 6.0 mph 50 % 0.00 in
15:21 42.3 °F 25.4 °F 30.05 in East 5.4 mph 10.4 mph 51 % 0.00 in
15:26 42.4 °F 25.5 °F 30.05 in ENE 6.2 mph 8.1 mph 51 % 0.00 in
15:31 42.5 °F 25.6 °F 30.04 in ENE 3.9 mph 8.1 mph 51 % 0.00 in
15:36 42.6 °F 27.5 °F 30.04 in ENE 3.7 mph 6.9 mph 55 % 0.00 in
15:42 42.6 °F 25.2 °F 30.04 in ENE 4.3 mph 6.9 mph 50 % 0.00 in
15:47 42.7 °F 28.5 °F 30.03 in ENE 5.6 mph 9.2 mph 57 % 0.00 in
15:52 42.5 °F 29.6 °F 30.02 in East 4.2 mph 8.1 mph 60 % 0.00 in
15:57 42.5 °F 30.0 °F 30.02 in East 2.0 mph 4.6 mph 61 % 0.00 in
16:02 42.9 °F 29.1 °F 30.02 in SE 4.1 mph 6.9 mph 58 % 0.00 in
16:07 43.8 °F 29.1 °F 30.02 in ESE 5.5 mph 9.2 mph 56 % 0.00 in
16:12 44.5 °F 28.9 °F 30.02 in ESE 3.6 mph 9.2 mph 54 % 0.00 in
16:17 45.0 °F 28.9 °F 30.02 in ESE 3.3 mph 9.2 mph 53 % 0.00 in
16:22 45.4 °F 29.3 °F 30.02 in ESE 2.5 mph 3.5 mph 53 % 0.00 in
16:27 45.6 °F 29.4 °F 30.02 in SSE 2.5 mph 4.6 mph 53 % 0.00 in
16:33 45.7 °F 29.1 °F 30.01 in South 5.6 mph 10.4 mph 52 % 0.00 in
16:38 45.6 °F 28.5 °F 30.01 in South 5.1 mph 10.4 mph 51 % 0.00 in
16:43 45.4 °F 28.3 °F 30.01 in SSE 5.8 mph 9.2 mph 51 % 0.00 in
16:48 45.2 °F 29.1 °F 30.01 in SE 2.2 mph 4.6 mph 53 % 0.00 in
16:53 45.0 °F 29.3 °F 30.00 in SSE 5.7 mph 9.2 mph 54 % 0.00 in
16:58 44.7 °F 29.1 °F 30.00 in SSE 4.3 mph 6.9 mph 54 % 0.00 in
17:03 44.5 °F 29.3 °F 30.00 in ESE 0.9 mph 4.6 mph 55 % 0.00 in
17:08 44.3 °F 29.6 °F 30.00 in South 4.6 mph 6.9 mph 56 % 0.00 in
17:13 44.2 °F 29.0 °F 30.00 in SE 3.2 mph 10.4 mph 55 % 0.00 in
17:18 44.0 °F 29.7 °F 29.99 in South 4.6 mph 8.1 mph 57 % 0.00 in
17:24 43.9 °F 30.1 °F 29.99 in SSE 6.1 mph 9.2 mph 58 % 0.00 in
17:34 43.6 °F 31.0 °F 29.98 in SE 1.7 mph 6.9 mph 61 % 0.00 in
17:39 43.4 °F 31.6 °F 29.98 in SE 5.5 mph 10.4 mph 63 % 0.00 in
17:44 43.2 °F 32.2 °F 29.98 in SE 2.8 mph 5.0 mph 65 % 0.00 in
17:49 43.0 °F 32.4 °F 29.99 in SSE 4.6 mph 6.9 mph 66 % 0.00 in
17:54 42.8 °F 33.3 °F 29.97 in ESE 3.1 mph 6.9 mph 69 % 0.00 in
17:59 42.7 °F 33.6 °F 29.98 in SE 4.2 mph 6.0 mph 70 % 0.00 in
18:04 42.5 °F 34.1 °F 29.97 in SE 4.1 mph 6.9 mph 72 % 0.00 in
18:10 42.3 °F 34.3 °F 29.98 in East 2.2 mph 6.9 mph 73 % 0.00 in
18:15 42.3 °F 34.6 °F 29.97 in SSE 3.8 mph 5.8 mph 74 % 0.00 in
18:20 42.3 °F 34.9 °F 29.98 in SE 2.2 mph 5.0 mph 75 % 0.00 in
18:25 42.3 °F 34.9 °F 29.97 in SE 2.0 mph 5.0 mph 75 % 0.00 in
18:30 42.3 °F 35.3 °F 29.97 in ESE 3.2 mph 8.1 mph 76 % 0.00 in
18:35 42.3 °F 35.6 °F 29.97 in East 2.8 mph 4.6 mph 77 % 0.00 in
18:40 42.4 °F 35.7 °F 29.97 in ESE 2.3 mph 4.6 mph 77 % 0.00 in
18:45 42.4 °F 36.0 °F 29.96 in SSE 3.4 mph 5.8 mph 78 % 0.00 in
18:50 42.4 °F 36.0 °F 29.96 in ESE 5.1 mph 8.1 mph 78 % 0.00 in
18:55 42.4 °F 36.0 °F 29.95 in SE 2.2 mph 4.6 mph 78 % 0.00 in
19:01 42.4 °F 36.0 °F 29.95 in SE 1.4 mph 4.6 mph 78 % 0.00 in
19:06 42.4 °F 36.0 °F 29.95 in SE 2.2 mph 3.5 mph 78 % 0.00 in
19:11 42.4 °F 36.3 °F 29.94 in East 3.4 mph 5.0 mph 79 % 0.00 in
19:16 42.4 °F 36.3 °F 29.93 in East 2.9 mph 5.0 mph 79 % 0.00 in
19:21 42.4 °F 36.7 °F 29.93 in SE 6.0 mph 7.0 mph 80 % 0.00 in
19:27 42.4 °F 37.0 °F 29.93 in East 2.7 mph 4.6 mph 81 % 0.00 in
19:32 42.5 °F 37.1 °F 29.92 in East 1.7 mph 3.5 mph 81 % 0.00 in
19:37 42.6 °F 37.5 °F 29.91 in ESE 3.9 mph 5.8 mph 82 % 0.00 in
19:42 42.8 °F 37.7 °F 29.91 in East 3.7 mph 5.8 mph 82 % 0.00 in
19:47 42.8 °F 37.4 °F 29.90 in East 5.3 mph 8.1 mph 81 % 0.00 in
19:52 43.0 °F 37.6 °F 29.90 in SE 3.1 mph 6.9 mph 81 % 0.00 in
19:57 43.2 °F 38.1 °F 29.89 in East 4.9 mph 6.9 mph 82 % 0.00 in
20:02 43.3 °F 38.2 °F 29.88 in East 3.2 mph 7.0 mph 82 % 0.00 in
20:07 43.4 °F 38.3 °F 29.88 in East 1.4 mph 3.5 mph 82 % 0.00 in
20:12 43.6 °F 38.5 °F 29.88 in East 4.4 mph 5.8 mph 82 % 0.00 in
20:18 43.8 °F 38.7 °F 29.87 in SE 3.2 mph 6.9 mph 82 % 0.00 in
20:23 44.0 °F 39.2 °F 29.86 in East 2.0 mph 4.6 mph 83 % 0.00 in
20:28 44.2 °F 39.4 °F 29.86 in East 3.4 mph 5.0 mph 83 % 0.00 in
20:33 44.5 °F 39.7 °F 29.86 in ESE 2.4 mph 4.0 mph 83 % 0.00 in
20:38 44.6 °F 39.8 °F 29.86 in ESE 4.4 mph 6.9 mph 83 % 0.00 in
20:43 44.7 °F 39.9 °F 29.85 in SE 2.1 mph 4.6 mph 83 % 0.00 in
20:48 44.7 °F 39.9 °F 29.85 in SSE 3.2 mph 4.6 mph 83 % 0.00 in
20:53 44.8 °F 40.0 °F 29.84 in East 4.0 mph 6.0 mph 83 % 0.00 in
20:58 44.9 °F 40.4 °F 29.84 in East 3.1 mph 5.0 mph 84 % 0.00 in
21:03 45.1 °F 40.9 °F 29.83 in ESE 3.3 mph 7.0 mph 85 % 0.00 in
21:09 45.5 °F 41.6 °F 29.83 in SE 3.1 mph 5.0 mph 86 % 0.00 in
21:14 46.1 °F 42.1 °F 29.82 in SE 11.3 mph 21.9 mph 86 % 0.00 in
21:19 47.0 °F 42.7 °F 29.82 in ESE 6.0 mph 13.8 mph 85 % 0.00 in
21:24 47.6 °F 43.3 °F 29.81 in ESE 10.9 mph 16.0 mph 85 % 0.00 in
21:29 48.3 °F 43.7 °F 29.80 in SE 8.6 mph 13.0 mph 84 % 0.00 in
21:34 48.9 °F 44.0 °F 29.79 in SE 6.9 mph 13.8 mph 83 % 0.00 in
21:39 49.3 °F 44.4 °F 29.78 in SE 10.5 mph 14.0 mph 83 % 0.00 in
21:44 49.7 °F 44.4 °F 29.78 in SSE 12.1 mph 19.6 mph 82 % 0.00 in
21:49 49.9 °F 44.6 °F 29.77 in SSE 10.9 mph 16.1 mph 82 % 0.00 in
21:54 49.9 °F 44.6 °F 29.77 in East 9.2 mph 12.7 mph 82 % 0.00 in
22:00 49.7 °F 45.7 °F 29.77 in SSE 9.6 mph 13.0 mph 86 % 0.00 in
22:05 49.3 °F 45.9 °F 29.76 in SSE 7.6 mph 19.6 mph 88 % 0.01 in
22:10 49.1 °F 46.0 °F 29.75 in SSW 6.6 mph 15.0 mph 89 % 0.03 in
22:15 49.3 °F 46.8 °F 29.75 in South 3.2 mph 8.0 mph 91 % 0.07 in
22:20 49.3 °F 47.1 °F 29.75 in South 3.6 mph 8.1 mph 92 % 0.08 in
22:25 49.2 °F 47.0 °F 29.74 in ESE 3.5 mph 5.8 mph 92 % 0.08 in
22:30 49.0 °F 46.8 °F 29.74 in SE 6.8 mph 12.7 mph 92 % 0.08 in
22:35 48.9 °F 46.7 °F 29.73 in SE 8.3 mph 12.7 mph 92 % 0.08 in
22:40 48.9 °F 46.7 °F 29.73 in South 7.5 mph 11.5 mph 92 % 0.08 in
22:45 48.9 °F 47.0 °F 29.72 in South 8.2 mph 12.0 mph 93 % 0.08 in
22:51 49.0 °F 47.1 °F 29.71 in SSE 6.1 mph 10.4 mph 93 % 0.08 in
22:56 49.1 °F 47.2 °F 29.70 in ESE 5.7 mph 9.2 mph 93 % 0.08 in
23:01 49.4 °F 47.7 °F 29.69 in SSE 7.2 mph 13.8 mph 94 % 0.07 in
23:06 49.7 °F 48.0 °F 29.69 in SE 8.3 mph 16.1 mph 94 % 0.07 in
23:11 50.0 °F 48.3 °F 29.68 in South 6.8 mph 10.4 mph 94 % 0.03 in
23:16 50.5 °F 48.8 °F 29.68 in SSE 6.6 mph 16.1 mph 94 % 0.01 in
23:21 50.9 °F 49.2 °F 29.67 in South 9.7 mph 17.3 mph 94 % 0.00 in
23:26 51.1 °F 49.1 °F 29.66 in SSE 6.6 mph 10.4 mph 93 % 0.00 in
23:31 51.2 °F 49.2 °F 29.66 in SSE 6.2 mph 11.5 mph 93 % 0.00 in
23:36 51.4 °F 49.4 °F 29.65 in SSE 8.4 mph 11.5 mph 93 % 0.00 in
23:42 51.7 °F 49.5 °F 29.65 in SSW 10.5 mph 18.4 mph 92 % 0.00 in
23:47 51.9 °F 49.6 °F 29.65 in ESE 5.6 mph 13.8 mph 92 % 0.00 in
23:52 52.1 °F 49.8 °F 29.64 in SSW 10.7 mph 21.9 mph 92 % 0.00 in
23:57 52.3 °F 50.0 °F 29.63 in South 6.0 mph 10.4 mph 92 % 0.00 in
Crab Meadow Weather
Compliments of Weather Underground - 3 mb

Script developed by  Jim McMurry - jmcmurry@mwt.net Adapted for the template by  Wim van der Kuil - Leuven-Template.eu

Weather Terms: Flood Warning - General or areal flooding of streets, low-lying areas, urban storm drains, creeks and small streams is occurring, imminent, or highly likely. Flood warnings are issued for flooding that occurs more than 6 hours after the excessive rainfall. These warnings are issued on a county by county basis by the local Weather Forecast Office in Upton and are generally in effect for 6 to 12 hours.